{"data":{"norad_id":57126,"intl_designator":"2023-090AB","name":"STARLINK-6167","alt_names":[],"object_type":"PAYLOAD","status":"ACTIVE","operator":null,"country":"US","launch_date":"2023-06-23","launch_site_code":"AFETR","launch_vehicle":null,"mission":null,"orbit_class":"UNKNOWN","rcs_meters":null,"size_class":null,"mass_kg":null,"dimensions":null,"purposes":["comms"],"wikipedia_slug":null,"has_3d_model":false,"image_url":null,"decayed_at":null,"tle_current":{"epoch":"2026-09-20T10:48:43.625952Z","epoch_age_seconds":125277,"freshness":"FRESH","line1":"1 57126U 23090AB  26263.45050493  .00000138  00000+0  14554-4 0  9998","line2":"2 57126  43.0046 262.0553 0001135 298.9341  61.1397 15.27571976180117","mean_motion":15.27571976,"eccentricity":0.0001135,"inclination_deg":43.0046,"raan_deg":262.0553,"arg_perigee_deg":298.9341,"mean_anomaly_deg":61.1397,"bstar":1.4554e-5,"rev_number":18011,"period_min":94.267243876173,"perigee_km":482.2943755385,"apogee_km":483.85187023639,"semimajor_km":6861.2101228874,"source":"CELESTRAK","updated_at":"2026-09-21T09:00:33.563204Z"}}}